• In Belarus
  • List of Countries
  • For 7 days
  • Water Temperature
  • Satellite Maps
  • Weather Map
  • Weather Widgets
  • user-avatar
    Login

    Hourly Weather Zenica

    Today, 21 July, Saturday

    Time Temperature Precipitation Wind Pressure Humidity
    00:00 +16°C° 0 mm 1 mps 677 mmHg 72%
    01:00 +15°C° 0 mm 1 mps 677 mmHg 72%
    02:00 +15°C° 0 mm 1 mps 677 mmHg 72%
    03:00 +15°C° 0 mm 1 mps 677 mmHg 72%
    04:00 +15°C° 0 mm 1 mps 676 mmHg 72%
    05:00 +18°C° 0 mm 1 mps 677 mmHg 69%
    06:00 +19°C° 0 mm 1 mps 677 mmHg 66%
    07:00 +21°C° 0 mm 1 mps 678 mmHg 63%
    08:00 +23°C° 0 mm 1 mps 678 mmHg 56%
    09:00 +25°C° 0 mm 1 mps 679 mmHg 49%
    10:00 +27°C° 0 mm 2 mps 679 mmHg 42%
    11:00 +28°C° 0 mm 2 mps 679 mmHg 42%
    12:00 +28°C° 0 mm 2 mps 679 mmHg 43%
    13:00 +28°C° 0 mm 3 mps 679 mmHg 43%
    14:00 +28°C° 0 mm 3 mps 679 mmHg 45%
    15:00 +28°C° 0 mm 2 mps 678 mmHg 47%
    16:00 +27°C° 0 mm 2 mps 678 mmHg 49%
    17:00 +25°C° 0 mm 2 mps 677 mmHg 56%
    18:00 +24°C° 0 mm 2 mps 677 mmHg 64%
    19:00 +21°C° 0 mm 2 mps 676 mmHg 71%
    20:00 +20°C° 0 mm 2 mps 676 mmHg 73%
    21:00 +18°C° 0 mm 2 mps 676 mmHg 75%
    22:00 +17°C° 0 mm 2 mps 676 mmHg 77%
    23:00 +17°C° 0.3 mm 2 mps 676 mmHg 78%

    Tomorrow, 22 July, Sunday

    Time Temperature Precipitation Wind Pressure Humidity
    00:00 +16°C° 0.3 mm 2 mps 676 mmHg 79%
    01:00 +16°C° 0.3 mm 2 mps 675 mmHg 79%
    02:00 +15°C° 0.5 mm 2 mps 675 mmHg 80%
    03:00 +15°C° 0.5 mm 2 mps 675 mmHg 82%
    04:00 +15°C° 0.5 mm 1 mps 675 mmHg 83%
    05:00 +16°C° 0.5 mm 1 mps 675 mmHg 82%
    06:00 +18°C° 0.5 mm 1 mps 675 mmHg 81%
    07:00 +20°C° 0.5 mm 1 mps 676 mmHg 80%
    08:00 +22°C° 0 mm 1 mps 676 mmHg 69%
    09:00 +25°C° 0 mm 1 mps 677 mmHg 58%
    10:00 +27°C° 0 mm 2 mps 677 mmHg 47%
    11:00 +27°C° 0 mm 2 mps 677 mmHg 47%
    12:00 +27°C° 0 mm 2 mps 677 mmHg 47%
    13:00 +28°C° 0 mm 2 mps 677 mmHg 48%
    14:00 +27°C° 0.1 mm 2 mps 676 mmHg 51%
    15:00 +26°C° 0.1 mm 2 mps 676 mmHg 53%
    16:00 +26°C° 0.1 mm 2 mps 676 mmHg 56%
    17:00 +24°C° 0.2 mm 1 mps 676 mmHg 63%
    18:00 +23°C° 0.2 mm 1 mps 675 mmHg 70%
    19:00 +21°C° 0.2 mm 1 mps 675 mmHg 76%
    20:00 +20°C° 0 mm 1 mps 675 mmHg 78%
    21:00 +19°C° 0 mm 1 mps 675 mmHg 81%
    22:00 +18°C° 0 mm 1 mps 675 mmHg 83%
    23:00 +16°C° 0 mm 1 mps 675 mmHg 84%

    Day after tomorrow, 23 July, Monday

    Time Temperature Precipitation Wind Pressure Humidity
    00:00 +16°C° 0 mm 1 mps 674 mmHg 84%
    01:00 +15°C° 0 mm 1 mps 674 mmHg 85%
    02:00 +15°C° 0.2 mm 1 mps 674 mmHg 86%
    03:00 +15°C° 0.2 mm 1 mps 674 mmHg 87%
    04:00 +15°C° 0.2 mm 1 mps 673 mmHg 87%
    05:00 +16°C° 0.6 mm 1 mps 674 mmHg 85%
    06:00 +18°C° 0.6 mm 1 mps 674 mmHg 82%
    07:00 +19°C° 0.6 mm 1 mps 674 mmHg 80%
    08:00 +20°C° 1.2 mm 1 mps 674 mmHg 77%
    09:00 +21°C° 1.2 mm 1 mps 674 mmHg 74%
    10:00 +22°C° 1.2 mm 1 mps 675 mmHg 71%
    11:00 +22°C° 1.1 mm 1 mps 675 mmHg 69%
    12:00 +23°C° 1.1 mm 1 mps 674 mmHg 68%
    13:00 +23°C° 1.1 mm 1 mps 674 mmHg 66%
    14:00 +22°C° 1.3 mm 1 mps 674 mmHg 71%
    15:00 +21°C° 1.3 mm 1 mps 674 mmHg 75%
    16:00 +21°C° 1.3 mm 1 mps 674 mmHg 80%
    17:00 +20°C° 0.8 mm 1 mps 673 mmHg 84%
    18:00 +19°C° 0.8 mm 1 mps 673 mmHg 88%
    19:00 +18°C° 0.8 mm 1 mps 673 mmHg 91%
    20:00 +16°C° 0.2 mm 1 mps 673 mmHg 93%
    21:00 +15°C° 0.2 mm 1 mps 673 mmHg 94%
    22:00 +14°C° 0.2 mm 1 mps 673 mmHg 95%
    23:00 +14°C° 0.1 mm 1 mps 673 mmHg 95%

    24 July, Tuesday

    Time Temperature Precipitation Wind Pressure Humidity
    00:00 +14°C° 0.1 mm 1 mps 673 mmHg 96%
    01:00 +14°C° 0.1 mm 1 mps 673 mmHg 96%
    02:00 +14°C° 0.1 mm 2 mps 673 mmHg 96%
    03:00 +14°C° 0.1 mm 2 mps 673 mmHg 97%
    04:00 +14°C° 0.1 mm 2 mps 673 mmHg 97%
    05:00 +15°C° 0.1 mm 2 mps 673 mmHg 96%
    06:00 +16°C° 0.1 mm 2 mps 674 mmHg 95%
    07:00 +16°C° 0.1 mm 2 mps 674 mmHg 93%
    08:00 +17°C° 0.1 mm 3 mps 674 mmHg 90%
    09:00 +18°C° 0.1 mm 3 mps 675 mmHg 86%
    10:00 +18°C° 0.1 mm 3 mps 675 mmHg 83%
    11:00 +19°C° 0.1 mm 3 mps 675 mmHg 78%
    12:00 +20°C° 0.1 mm 3 mps 675 mmHg 73%
    13:00 +22°C° 0.1 mm 3 mps 675 mmHg 69%
    14:00 +22°C° 0.2 mm 3 mps 675 mmHg 68%
    15:00 +22°C° 0.2 mm 3 mps 675 mmHg 67%
    16:00 +22°C° 0.2 mm 3 mps 675 mmHg 67%
    17:00 +21°C° 0.1 mm 2 mps 675 mmHg 72%
    18:00 +19°C° 0.1 mm 2 mps 675 mmHg 78%
    19:00 +19°C° 0.1 mm 1 mps 674 mmHg 84%
    20:00 +18°C° 0 mm 1 mps 675 mmHg 86%
    21:00 +16°C° 0 mm 1 mps 675 mmHg 88%
    22:00 +15°C° 0 mm 1 mps 675 mmHg 90%
    23:00 +15°C° 0 mm 1 mps 674 mmHg 90%

    25 July, Wednesday

    Time Temperature Precipitation Wind Pressure Humidity
    00:00 +14°C° 0 mm 1 mps 674 mmHg 90%
    01:00 +14°C° 0 mm 1 mps 674 mmHg 90%
    02:00 +14°C° 0 mm 1 mps 674 mmHg 90%
    03:00 +14°C° 0 mm 1 mps 674 mmHg 90%
    04:00 +14°C° 0 mm 1 mps 674 mmHg 90%
    05:00 +15°C° 0 mm 1 mps 675 mmHg 86%
    06:00 +18°C° 0 mm 1 mps 675 mmHg 83%
    07:00 +20°C° 0 mm 1 mps 676 mmHg 79%
    08:00 +21°C° 0.1 mm 1 mps 676 mmHg 73%
    09:00 +21°C° 0.1 mm 2 mps 676 mmHg 67%
    10:00 +24°C° 0.1 mm 2 mps 677 mmHg 62%
    11:00 +24°C° 0.4 mm 2 mps 677 mmHg 61%
    12:00 +24°C° 0.4 mm 2 mps 677 mmHg 61%
    13:00 +25°C° 0.4 mm 2 mps 676 mmHg 60%
    14:00 +25°C° 0.4 mm 2 mps 676 mmHg 61%
    15:00 +24°C° 0.4 mm 2 mps 676 mmHg 61%
    16:00 +24°C° 0.4 mm 2 mps 676 mmHg 62%
    17:00 +23°C° 0.2 mm 2 mps 676 mmHg 69%
    18:00 +21°C° 0.2 mm 1 mps 676 mmHg 75%
    19:00 +19°C° 0.2 mm 1 mps 675 mmHg 82%
    20:00 +18°C° 0.1 mm 1 mps 675 mmHg 85%
    21:00 +16°C° 0.1 mm 1 mps 675 mmHg 88%
    22:00 +15°C° 0.1 mm 1 mps 675 mmHg 90%
    23:00 +15°C° 0 mm 1 mps 675 mmHg 91%

    26 July, Thursday

    Time Temperature Precipitation Wind Pressure Humidity
    00:00 +14°C° 0 mm 1 mps 675 mmHg 91%
    01:00 +14°C° 0 mm 1 mps 675 mmHg 92%
    02:00 +14°C° 0 mm 1 mps 675 mmHg 91%
    03:00 +14°C° 0 mm 1 mps 675 mmHg 91%
    04:00 +13°C° 0 mm 1 mps 675 mmHg 91%
    05:00 +15°C° 0 mm 1 mps 676 mmHg 87%
    06:00 +16°C° 0 mm 1 mps 676 mmHg 82%
    07:00 +19°C° 0 mm 1 mps 677 mmHg 78%
    08:00 +19°C° 0.1 mm 2 mps 677 mmHg 72%
    09:00 +21°C° 0.1 mm 2 mps 677 mmHg 66%
    10:00 +22°C° 0.1 mm 3 mps 678 mmHg 60%
    11:00 +24°C° 0.2 mm 3 mps 678 mmHg 59%
    12:00 +24°C° 0.2 mm 3 mps 678 mmHg 58%
    13:00 +25°C° 0.2 mm 3 mps 678 mmHg 57%
    14:00 +24°C° 0.3 mm 3 mps 677 mmHg 59%
    15:00 +24°C° 0.3 mm 3 mps 677 mmHg 60%
    16:00 +24°C° 0.3 mm 3 mps 677 mmHg 62%
    17:00 +21°C° 0.2 mm 2 mps 677 mmHg 69%
    18:00 +20°C° 0.2 mm 2 mps 677 mmHg 76%
    19:00 +19°C° 0.2 mm 1 mps 676 mmHg 83%
    20:00 +18°C° 0.1 mm 1 mps 676 mmHg 86%
    21:00 +16°C° 0.1 mm 1 mps 676 mmHg 88%
    22:00 +15°C° 0.1 mm 1 mps 676 mmHg 90%
    23:00 +15°C° 0.1 mm 1 mps 676 mmHg 91%
    Show more